HST 1 20580U 90037B 26235.67030653 .00005845 00000+0 17957-3 0 9995 2 20580 28.4738 339.1086 0001996 161.2931 198.7739 15.31432859798927 POLAR 1 23802U 96013A 26235.81836052 .00000242 00000+0 00000+0 0 9991 2 23802 79.9529 226.2419 6539200 206.7602 94.5021 1.29845821145733 SWAS 1 25560U 98071A 26235.79262145 .00002445 00000+0 15672-3 0 9995 2 25560 69.8952 53.1289 0005121 181.7295 178.3852 15.09967502507470 CXO 1 25867U 99040B 26238.13521419 .00000985 00000+0 00000+0 0 9997 2 25867 57.1028 114.8710 7727577 309.5585 0.6618 0.37795883 17584 XMM-NEWTON 1 25989U 99066A 26237.16334562 .00000151 00000+0 00000+0 0 9998 2 25989 64.1233 282.0944 4655947 63.6541 0.0931 0.50125027 23345 TERRA 1 25994U 99068A 26235.94938303 .00000272 00000+0 64293-4 0 9996 2 25994 97.9405 282.7912 0002941 44.2548 8.6817 14.61147796419504 CLUSTER II-FM7 (SAMBA) 1 26410U 00041A 26228.35648488 .00204628 -13535-2 00000+0 0 9995 2 26410 149.5559 61.8704 9119992 279.7536 359.6603 0.44877167 20578 CLUSTER II-FM8 (TANGO) 1 26464U 00045B 26229.20733220 .00166053 -10922-2 00000+0 0 9998 2 26464 149.7044 63.2380 9123134 280.9873 2.0812 0.44464409 20588 TIMED 1 26998U 01055B 26235.91382435 .00000815 00000+0 77360-4 0 9998 2 26998 74.0663 98.6407 0002341 257.6004 102.4919 14.95418032340943 CORIOLIS 1 27640U 03001A 26235.27946764 .00000094 00000+0 64592-4 0 9998 2 27640 98.7160 241.1483 0014496 24.3423 335.8435 14.19960913223749 SORCE 1 27651U 03004A 26235.34333310 .00002099 00000+0 15963-3 0 9992 2 27651 39.9894 238.4312 0017378 178.4449 181.6402 15.04009215282013 MOST 1 27843U 03031D 26235.72149720 .00000051 00000+0 43227-4 0 9998 2 27843 98.7077 242.5124 0010866 60.9593 299.2671 14.21334132200302 SCISAT 1 1 27858U 03036A 26235.41600759 .00000527 00000+0 71885-4 0 9998 2 27858 73.9297 37.7566 0006080 85.3294 274.8577 14.81515611241402 SWIFT 1 28485U 04047A 26235.58590932 .00074551 00000+0 45582-3 0 9999 2 28485 20.5526 22.3024 0001741 127.2020 232.8586 15.75577728197486 HINODE (SOLAR-B) 1 29479U 06041A 26235.77040193 .00000527 00000+0 98685-4 0 9994 2 29479 98.0556 250.9304 0018854 75.0285 285.3006 14.68699231 64791 SHIJIAN-6 02A (SJ-6 02A) 1 29505U 06046A 26235.95260222 .00003349 00000+0 17007-3 0 9999 2 29505 97.6325 277.5423 0001204 259.4611 100.6487 15.17604742 82542 SHIJIAN-6 02B (SJ-6 02B) 1 29506U 06046B 26235.99026051 -.00000086 00000+0 -18963-5 0 9995 2 29506 97.7072 264.6096 0014925 190.9992 169.0908 15.01470209 80919 FGRST (GLAST) 1 33053U 08029A 26235.92630442 .00002927 00000+0 10309-3 0 9996 2 33053 25.5822 94.0215 0008471 48.4759 311.6505 15.24244195 6035 SDO 1 36395U 10005A 26235.10808932 -.00000085 00000+0 00000+0 0 9993 2 36395 34.7869 85.3235 0001515 67.9935 115.2347 1.00276339 60732 CRYOSAT 2 1 36508U 10013A 26235.89895113 .00000086 00000+0 20728-4 0 9995 2 36508 92.0316 293.7548 0002695 88.1303 272.0213 14.51899981867900 X-SAT 1 37389U 11015C 26235.97337420 .00000149 00000+0 80682-4 0 9992 2 37389 98.3583 209.7905 0014665 139.7971 220.4297 14.25223265797336 GCOM-W1 (SHIZUKU) 1 38337U 12025A 26235.80367477 .00000348 00000+0 87168-4 0 9992 2 38337 98.2041 175.3398 0001344 89.4686 300.6274 14.57118371758885 NUSTAR 1 38358U 12031A 26236.00002315 .00006892 00000+0 36620-3 0 9998 2 38358 6.0252 245.2617 0007271 30.7030 114.2866 15.09360509 1301 NEOSSAT 1 39089U 13009D 26235.45651643 .00000115 00000+0 54371-4 0 9994 2 39089 98.4216 53.9058 0011923 50.2476 309.9759 14.35846617706393 BRITE-AUSTRIA 1 39091U 13009F 26235.90915823 .00000130 00000+0 58713-4 0 9991 2 39091 98.4036 53.6861 0010982 43.2470 316.9577 14.36564933706772 IRIS 1 39197U 13033A 26235.50334945 .00000805 00000+0 97932-4 0 9996 2 39197 97.9302 74.5677 0025811 98.0814 262.3331 14.86001422710370 HISAKI (SPRINT-A) 1 39253U 13049A 26235.36976477 .00000110 00000+0 57687-4 0 9994 2 39253 29.7188 238.4491 0136679 201.4450 158.0353 13.55549090640543 CASSIOPE 1 39265U 13055A 26235.89499378 .00049314 -18342-6 51176-3 0 9993 2 39265 80.9163 344.1930 0275970 193.1776 166.2155 15.29520805678006 STSAT-3 1 39422U 13066G 26235.95639729 .00001447 00000+0 11173-3 0 9995 2 39422 97.6263 204.7821 0010213 153.1922 206.9833 15.03072121694382 SWARM B 1 39451U 13067A 26235.94891245 .00002961 00000+0 10416-3 0 9991 2 39451 87.7471 321.7432 0003149 102.1718 257.9884 15.28931452693592 SWARM A 1 39452U 13067B 26235.84816836 .00009272 00000+0 16269-3 0 9998 2 39452 87.3315 31.0927 0002443 86.7781 273.3759 15.50366379716739 SWARM C 1 39453U 13067C 26235.84807950 .00009294 00000+0 16308-3 0 9994 2 39453 87.3318 29.6747 0002434 87.4346 272.7194 15.50367686716694 BRITE-CA1 (TORONTO) 1 40020U 14033L 26235.77622836 .00000662 00000+0 10643-3 0 9996 2 40020 97.9819 3.4909 0079641 61.1016 299.8152 14.72788342652160 OCO 2 1 40059U 14035A 26235.93135986 .00000292 00000+0 74808-4 0 9996 2 40059 98.2039 176.2016 0001586 91.2822 268.8559 14.57084731645916 BRITE-PL2 (HEWELIUSZ) 1 40119U 14049B 26235.78605346 .00001714 00000+0 16293-3 0 9996 2 40119 97.9143 348.3345 0012697 242.0559 117.9376 14.94792286651549 MMS 1 1 40482U 15011A 26236.00002315 -.00002226 00000+0 00000+0 0 9997 2 40482 72.7728 348.0079 8274282 168.8585 16.2543 0.28323862 1385 MMS 2 1 40483U 15011B 26236.00002315 -.00002227 00000+0 00000+0 0 9999 2 40483 72.7771 348.0068 8277119 168.8605 16.2360 0.28323780 1383 MMS 3 1 40484U 15011C 26236.00002315 -.00002226 00000+0 00000+0 0 9999 2 40484 72.7758 348.0196 8275524 168.8696 16.2081 0.28322102 1386 MMS 4 1 40485U 15011D 26236.00002315 -.00002226 00000+0 00000+0 0 9990 2 40485 72.7711 348.0027 8275510 168.8785 16.2075 0.28323734 1388 ASTROSAT 1 40930U 15052A 26235.76615087 .00001494 00000+0 99704-4 0 9997 2 40930 5.9984 28.8780 0008594 279.7681 80.1476 14.82609491589879 DAMPE 1 41173U 15078A 26235.95155334 .00000573 00000+0 21763-4 0 9997 2 41173 97.4594 241.7684 0011366 187.4356 172.6718 15.30931204594917 PISAT 1 41784U 16059B 26235.43954703 .00000835 00000+0 14938-3 0 9991 2 41784 97.8227 233.0199 0028814 353.8197 6.2650 14.69091303529615 HXMT (HUIYAN) 1 42758U 17034A 26235.94087748 .00003837 00000+0 18922-3 0 9991 2 42758 43.0137 165.6214 0032163 217.0938 142.7688 15.18963838507961 FLYING LAPTOP 1 42831U 17042G 26235.96757010 .00002629 00000+0 20726-3 0 9993 2 42831 97.4955 29.0344 0016219 258.0801 101.8606 15.01500434496626 ZHANGHENG 1-01 (CSES-1) 1 43194U 18015C 26235.97315571 .00005418 00000+0 24653-3 0 9992 2 43194 97.6931 43.0052 0016465 36.0740 324.1602 15.21039137474942 SALSAT 1 46495U 20068K 26235.95590157 .00006873 00000+0 23443-3 0 9995 2 46495 97.8879 243.2009 0011187 69.3904 290.8534 15.30648655325720 IXPE 1 49954U 21121A 26236.00002315 .00010323 00000+0 54842-3 0 9992 2 49954 0.2279 164.1243 0007155 28.0561 352.5468 15.10794968 5552 SMILE 1 69123U 26109A 26232.83835195 .00000724 00000+0 00000+0 0 9997 2 69123 70.0346 206.3624 8229755 286.2672 0.0372 0.47505607 238